| time (UTC) | temp F | wind direction | speed MPH | gust MPH | rain 1hr in | rain 24hr in | rain mn in | humidity % | barometer mb |
| 20260504204509 | 74 | 238 | 7.0 | 17.0 | 0.00 | 0.08 | 0.08 | 47 | 1011.4 |
| 20260504204006 | 74 | 239 | 7.0 | 17.0 | 0.00 | 0.08 | 0.08 | 46 | 1011.5 |
| 20260504203502 | 74 | 252 | 5.0 | 10.0 | 0.00 | 0.08 | 0.08 | 47 | 1011.5 |
| 20260504203002 | 74 | 245 | 5.0 | 10.0 | 0.00 | 0.08 | 0.08 | 46 | 1011.4 |
| 20260504202502 | 74 | 228 | 5.0 | 11.0 | 0.00 | 0.08 | 0.08 | 45 | 1011.4 |
| 20260504202002 | 74 | 218 | 6.0 | 12.0 | 0.00 | 0.08 | 0.08 | 46 | 1011.4 |
| 20260504201504 | 74 | 226 | 6.0 | 17.0 | 0.00 | 0.08 | 0.08 | 46 | 1011.5 |
| 20260504201003 | 75 | 221 | 7.0 | 17.0 | 0.00 | 0.08 | 0.08 | 41 | 1011.5 |
| 20260504200504 | 75 | 231 | 8.0 | 17.0 | 0.00 | 0.08 | 0.08 | 42 | 1011.5 |
| 20260504200003 | 75 | 216 | 4.0 | 9.0 | 0.00 | 0.08 | 0.08 | 41 | 1011.6 |
| 20260504195504 | 75 | 218 | 5.0 | 9.0 | 0.00 | 0.08 | 0.08 | 38 | 1011.6 |
| 20260504195003 | 74 | 248 | 5.0 | 10.0 | 0.00 | 0.08 | 0.08 | 43 | 1011.7 |
| 20260504194508 | 74 | 245 | 5.0 | 10.0 | 0.00 | 0.08 | 0.08 | 41 | 1011.8 |
| 20260504194006 | 74 | 235 | 4.0 | 10.0 | 0.00 | 0.08 | 0.08 | 41 | 1012.0 |
| 20260504193506 | 74 | 249 | 4.0 | 10.0 | 0.00 | 0.08 | 0.08 | 43 | 1012.0 |
| 20260504193022 | 74 | 260 | 6.0 | 11.0 | 0.00 | 0.08 | 0.08 | 40 | 1012.0 |
| 20260504192507 | 74 | 241 | 5.0 | 11.0 | 0.00 | 0.08 | 0.08 | 39 | 1012.1 |
| 20260504192002 | 74 | 243 | 6.0 | 10.0 | 0.00 | 0.08 | 0.08 | 38 | 1012.1 |
| 20260504191506 | 74 | 247 | 5.0 | 10.0 | 0.00 | 0.08 | 0.08 | 37 | 1012.2 |
| 20260504191002 | 74 | 238 | 6.0 | 13.0 | 0.00 | 0.08 | 0.08 | 39 | 1012.3 |
| 20260504190504 | 74 | 255 | 7.0 | 13.0 | 0.00 | 0.08 | 0.08 | 40 | 1012.4 |
| 20260504190018 | 73 | 240 | 8.0 | 13.0 | 0.00 | 0.08 | 0.08 | 38 | 1012.5 |
| 20260504185504 | 73 | 246 | 5.0 | 13.0 | 0.00 | 0.08 | 0.08 | 43 | 1012.6 |
| 20260504185004 | 73 | 269 | 7.0 | 13.0 | 0.00 | 0.08 | 0.08 | 41 | 1012.7 |
| 20260504184504 | 73 | 255 | 6.0 | 10.0 | 0.00 | 0.08 | 0.08 | 41 | 1012.8 |
| 20260504184005 | 72 | 231 | 5.0 | 9.0 | 0.00 | 0.08 | 0.08 | 45 | 1012.8 |
| 20260504183506 | 73 | 245 | 5.0 | 8.0 | 0.00 | 0.08 | 0.08 | 43 | 1012.9 |
| 20260504183014 | 73 | 360 | 3.0 | 8.0 | 0.00 | 0.08 | 0.08 | 42 | 1013.0 |
| 20260504182508 | 72 | 360 | 2.0 | 7.0 | 0.00 | 0.08 | 0.08 | 45 | 1013.0 |
| 20260504182007 | 72 | 203 | 3.0 | 7.0 | 0.00 | 0.08 | 0.08 | 42 | 1013.2 |
| 20260504181514 | 72 | 264 | 3.0 | 6.0 | 0.00 | 0.08 | 0.08 | 43 | 1013.2 |
| 20260504181006 | 72 | 189 | 1.0 | 8.0 | 0.00 | 0.08 | 0.08 | 52 | 1013.3 |
| 20260504180503 | 71 | 205 | 4.0 | 8.0 | 0.00 | 0.08 | 0.08 | 43 | 1013.3 |
| 20260504180005 | 70 | 188 | 1.0 | 8.0 | 0.00 | 0.08 | 0.08 | 49 | 1013.4 |
| 20260504175504 | 69 | 184 | 2.0 | 8.0 | 0.00 | 0.08 | 0.08 | 50 | 1013.4 |
| 20260504175008 | 69 | 222 | 3.0 | 8.0 | 0.00 | 0.08 | 0.08 | 45 | 1013.4 |
| 20260504174508 | 70 | 122 | 5.0 | 8.0 | 0.00 | 0.08 | 0.08 | 54 | 1013.5 |
| 20260504174004 | 71 | 180 | 2.0 | 9.0 | 0.00 | 0.08 | 0.08 | 49 | 1013.5 |
| 20260504173503 | 71 | 224 | 5.0 | 9.0 | 0.00 | 0.08 | 0.08 | 39 | 1013.6 |
| 20260504173018 | 70 | 217 | 4.0 | 8.0 | 0.00 | 0.08 | 0.08 | 41 | 1013.7 |
| 20260504172503 | 70 | 188 | 6.0 | 8.0 | 0.00 | 0.08 | 0.08 | 41 | 1013.6 |
| 20260504172006 | 69 | 230 | 3.0 | 7.0 | 0.00 | 0.08 | 0.08 | 46 | 1013.8 |
| 20260504171516 | 68 | 259 | 3.0 | 6.0 | 0.00 | 0.08 | 0.08 | 46 | 1013.9 |
| 20260504171007 | 67 | 259 | 1.0 | 5.0 | 0.01 | 0.08 | 0.08 | 54 | 1013.9 |
| 20260504170506 | 67 | 137 | 3.0 | 7.0 | 0.03 | 0.08 | 0.08 | 51 | 1014.1 |
| 20260504151010 | 64 | 230 | 3.0 | 6.0 | 0.00 | 0.00 | 0.00 | 52 | 1015.2 |
| 20260504150503 | 64 | 242 | 3.0 | 6.0 | 0.00 | 0.00 | 0.00 | 51 | 1015.2 |
| 20260504141003 | 60 | 304 | 4.0 | 7.0 | 0.00 | 0.00 | 0.00 | 60 | 1015.4 |
| 20260504140503 | 60 | 264 | 4.0 | 10.0 | 0.00 | 0.00 | 0.00 | 60 | 1015.4 |
| 20260504130502 | 57 | 259 | 8.0 | 10.0 | 0.00 | 0.00 | 0.00 | 62 | 1015.8 |
| 20260504110504 | 55 | 224 | 5.0 | 13.0 | 0.00 | 0.00 | 0.00 | 66 | 1016.4 |
| 20260504100503 | 55 | 229 | 9.0 | 19.0 | 0.00 | 0.00 | 0.00 | 65 | 1016.4 |
| 20260504082008 | 55 | 234 | 4.0 | 10.0 | 0.00 | 0.00 | 0.00 | 68 | 1016.5 |
| 20260504081512 | 55 | 211 | 4.0 | 8.0 | 0.00 | 0.00 | 0.00 | 67 | 1016.5 |
| 20260504081006 | 55 | 212 | 2.0 | 8.0 | 0.00 | 0.00 | 0.00 | 69 | 1016.5 |
| 20260504080507 | 55 | 195 | 2.0 | 10.0 | 0.00 | 0.00 | 0.00 | 68 | 1016.5 |
| 20260504050502 | 57 | 206 | 2.0 | 9.0 | 0.00 | 0.00 | 0.00 | 60 | 1016.6 |
| 20260504050009 | 57 | 169 | 3.0 | 10.0 | 0.00 | 0.00 | 0.00 | 60 | 1016.7 |
| 20260504045503 | 57 | 184 | 5.0 | 10.0 | 0.00 | 0.00 | 0.00 | 58 | 1016.6 |
| 20260504045007 | 58 | 165 | 4.0 | 10.0 | 0.00 | 0.00 | 0.00 | 60 | 1016.6 |
| 20260504044519 | 58 | 153 | 2.0 | 8.0 | 0.00 | 0.00 | 0.00 | 62 | 1016.6 |
| 20260504044007 | 58 | 203 | 5.0 | 8.0 | 0.00 | 0.00 | 0.00 | 61 | 1016.7 |
| 20260504043506 | 58 | 162 | 2.0 | 7.0 | 0.00 | 0.00 | 0.00 | 61 | 1016.7 |
| 20260504043027 | 57 | 193 | 3.0 | 8.0 | 0.00 | 0.00 | 0.00 | 63 | 1016.7 |
| 20260504042508 | 57 | 177 | 3.0 | 8.0 | 0.00 | 0.00 | 0.00 | 62 | 1016.7 |
| 20260504042008 | 57 | 157 | 3.0 | 8.0 | 0.00 | 0.00 | 0.00 | 61 | 1016.7 |
| 20260504041524 | 57 | 181 | 4.0 | 8.0 | 0.00 | 0.00 | 0.00 | 63 | 1016.7 |
| 20260504041007 | 58 | 170 | 3.0 | 8.0 | 0.00 | 0.00 | 0.00 | 61 | 1016.7 |
| 20260504040509 | 58 | 193 | 2.0 | 8.0 | 0.00 | 0.00 | 0.00 | 61 | 1016.6 |
| 20260504040012 | 58 | 178 | 3.0 | 7.0 | 0.00 | 0.00 | 0.00 | 61 | 1016.5 |
| 20260504035503 | 58 | 166 | 4.0 | 7.0 | 0.00 | 0.00 | 0.00 | 60 | 1016.5 |
| 20260504035005 | 58 | 179 | 2.0 | 5.0 | 0.00 | 0.00 | 0.00 | 63 | 1016.5 |
| 20260504034511 | 58 | 193 | 2.0 | 5.0 | 0.00 | 0.00 | 0.00 | 62 | 1016.6 |
| 20260504034010 | 58 | 175 | 2.0 | 5.0 | 0.00 | 0.00 | 0.00 | 63 | 1016.6 |
| 20260504033511 | 58 | 173 | 1.0 | 5.0 | 0.00 | 0.00 | 0.00 | 63 | 1016.6 |
| 20260504033019 | 58 | 168 | 2.0 | 7.0 | 0.00 | 0.00 | 0.00 | 61 | 1016.6 |
| 20260504032507 | 58 | 176 | 3.0 | 7.0 | 0.00 | 0.00 | 0.00 | 57 | 1016.5 |
| 20260504032007 | 58 | 196 | 2.0 | 6.0 | 0.00 | 0.00 | 0.00 | 60 | 1016.5 |
| 20260504031521 | 58 | 185 | 2.0 | 8.0 | 0.00 | 0.00 | 0.00 | 59 | 1016.5 |
| 20260504031013 | 58 | 181 | 2.0 | 8.0 | 0.00 | 0.00 | 0.00 | 59 | 1016.4 |
| 20260504030512 | 58 | 185 | 3.0 | 7.0 | 0.00 | 0.00 | 0.00 | 58 | 1016.4 |
| 20260504030020 | 58 | 192 | 4.0 | 7.0 | 0.00 | 0.00 | 0.00 | 58 | 1016.5 |
| 20260504025512 | 58 | 167 | 1.0 | 6.0 | 0.00 | 0.00 | 0.00 | 63 | 1016.4 |
| 20260504025004 | 59 | 187 | 3.0 | 6.0 | 0.00 | 0.00 | 0.00 | 61 | 1016.5 |
| 20260504024514 | 59 | 180 | 1.0 | 4.0 | 0.00 | 0.00 | 0.00 | 60 | 1016.4 |
| 20260504024004 | 59 | 180 | 2.0 | 4.0 | 0.00 | 0.00 | 0.00 | 60 | 1016.4 |
| 20260504023504 | 59 | 190 | 1.0 | 4.0 | 0.00 | 0.00 | 0.00 | 60 | 1016.4 |
| 20260504023003 | 59 | 191 | 2.0 | 5.0 | 0.00 | 0.00 | 0.00 | 60 | 1016.4 |
| 20260504022502 | 59 | 176 | 1.0 | 5.0 | 0.00 | 0.00 | 0.00 | 59 | 1016.5 |
| 20260504022003 | 59 | 191 | 3.0 | 6.0 | 0.00 | 0.00 | 0.00 | 58 | 1016.5 |
| 20260504021503 | 59 | 185 | 3.0 | 6.0 | 0.00 | 0.00 | 0.00 | 58 | 1016.5 |
| 20260504021004 | 59 | 186 | 3.0 | 6.0 | 0.00 | 0.00 | 0.00 | 58 | 1016.4 |
| 20260504020504 | 59 | 195 | 3.0 | 5.0 | 0.00 | 0.00 | 0.00 | 58 | 1016.4 |
| 20260504020003 | 59 | 200 | 2.0 | 4.0 | 0.00 | 0.00 | 0.00 | 58 | 1016.3 |
| 20260504015503 | 59 | 199 | 1.0 | 7.0 | 0.00 | 0.00 | 0.00 | 58 | 1016.3 |
| 20260504015005 | 59 | 199 | 2.0 | 7.0 | 0.00 | 0.00 | 0.00 | 58 | 1016.3 |
| 20260504014508 | 58 | 193 | 4.0 | 6.0 | 0.00 | 0.00 | 0.00 | 59 | 1016.2 |
| 20260504014004 | 58 | 174 | 0.0 | 2.0 | 0.00 | 0.00 | 0.00 | 65 | 1016.2 |
| 20260504013505 | 58 | 174 | 0.0 | 3.0 | 0.00 | 0.00 | 0.00 | 65 | 1016.2 |
| 20260504013017 | 58 | 174 | 1.0 | 3.0 | 0.00 | 0.00 | 0.00 | 64 | 1016.3 |
| 20260504012504 | 58 | 176 | 2.0 | 6.0 | 0.00 | 0.00 | 0.00 | 66 | 1016.2 |
| 20260504012007 | 57 | 181 | 3.0 | 6.0 | 0.00 | 0.00 | 0.00 | 70 | 1016.2 |
| 20260504011508 | 56 | 180 | 0.0 | 3.0 | 0.00 | 0.00 | 0.00 | 67 | 1016.0 |
| 20260504011002 | 56 | 332 | 0.0 | 0.0 | 0.00 | 0.00 | 0.00 | 65 | 1016.0 |
| 20260504010504 | 56 | 332 | 0.0 | 0.0 | 0.00 | 0.00 | 0.00 | 63 | 1015.9 |
| 20260504010005 | 56 | 332 | 0.0 | 0.0 | 0.00 | 0.00 | 0.00 | 62 | 1015.9 |
| 20260504005504 | 56 | 332 | 0.0 | 2.0 | 0.00 | 0.00 | 0.00 | 64 | 1015.8 |
| 20260504005006 | 56 | 332 | 0.0 | 2.0 | 0.00 | 0.00 | 0.00 | 64 | 1015.8 |
| 20260504004506 | 55 | 331 | 0.0 | 2.0 | 0.00 | 0.00 | 0.00 | 63 | 1015.8 |
| 20260504004005 | 55 | 330 | 0.0 | 0.0 | 0.00 | 0.00 | 0.00 | 63 | 1015.8 |
| 20260504003506 | 55 | 330 | 0.0 | 0.0 | 0.00 | 0.00 | 0.00 | 63 | 1015.8 |
| 20260504003006 | 55 | 330 | 0.0 | 0.0 | 0.00 | 0.00 | 0.00 | 60 | 1015.7 |
| 20260504002504 | 56 | 330 | 0.0 | 0.0 | 0.00 | 0.00 | 0.00 | 59 | 1015.6 |
| 20260504002009 | 56 | 331 | 0.0 | 0.0 | 0.00 | 0.00 | 0.00 | 61 | 1015.5 |
| 20260504001516 | 57 | 332 | 0.0 | 0.0 | 0.00 | 0.00 | 0.00 | 60 | 1015.5 |
| 20260504001005 | 57 | 332 | 0.0 | 0.0 | 0.00 | 0.00 | 0.00 | 59 | 1015.4 |
| 20260504000507 | 57 | 331 | 0.0 | 0.0 | 0.00 | 0.00 | 0.00 | 55 | 1015.3 |
| 20260504000003 | 58 | 331 | 0.0 | 0.0 | 0.00 | 0.00 | 0.00 | 55 | 1015.3 |
| 20260503235502 | 59 | 333 | 0.0 | 2.0 | 0.00 | 0.00 | 0.00 | 53 | 1015.3 |
| 20260503235003 | 60 | 330 | 1.0 | 2.0 | 0.00 | 0.00 | 0.00 | 51 | 1015.2 |
| 20260503234506 | 61 | 330 | 1.0 | 2.0 | 0.00 | 0.00 | 0.00 | 49 | 1015.2 |
| 20260503234006 | 62 | 330 | 0.0 | 2.0 | 0.00 | 0.00 | 0.00 | 47 | 1015.2 |
| 20260503233502 | 62 | 330 | 0.0 | 2.0 | 0.00 | 0.00 | 0.00 | 45 | 1015.2 |
| 20260503233005 | 62 | 282 | 0.0 | 4.0 | 0.00 | 0.00 | 0.00 | 43 | 1015.2 |
| 20260503232505 | 62 | 282 | 2.0 | 5.0 | 0.00 | 0.00 | 0.00 | 43 | 1015.1 |
| 20260503232005 | 62 | 276 | 2.0 | 5.0 | 0.00 | 0.00 | 0.00 | 43 | 1015.1 |
| 20260503231514 | 62 | 283 | 3.0 | 5.0 | 0.00 | 0.00 | 0.00 | 45 | 1015.1 |
| 20260503231007 | 62 | 278 | 2.0 | 7.0 | 0.00 | 0.00 | 0.00 | 43 | 1015.0 |
| 20260503230507 | 62 | 276 | 4.0 | 7.0 | 0.00 | 0.00 | 0.00 | 45 | 1015.1 |
| 20260503230012 | 62 | 297 | 3.0 | 7.0 | 0.00 | 0.00 | 0.00 | 41 | 1015.1 |
| 20260503225510 | 62 | 281 | 4.0 | 8.0 | 0.00 | 0.00 | 0.00 | 40 | 1015.1 |
| 20260503225009 | 62 | 278 | 5.0 | 9.0 | 0.00 | 0.00 | 0.00 | 44 | 1015.2 |
| 20260503224506 | 62 | 280 | 6.0 | 9.0 | 0.00 | 0.00 | 0.00 | 43 | 1015.2 |
| 20260503224003 | 62 | 293 | 5.0 | 11.0 | 0.00 | 0.00 | 0.00 | 42 | 1015.2 |
| 20260503223502 | 63 | 306 | 4.0 | 12.0 | 0.00 | 0.00 | 0.00 | 40 | 1015.2 |
| 20260503223004 | 62 | 281 | 4.0 | 12.0 | 0.00 | 0.00 | 0.00 | 41 | 1015.2 |
| 20260503222503 | 62 | 291 | 5.0 | 12.0 | 0.00 | 0.00 | 0.00 | 39 | 1015.2 |
| 20260503222006 | 62 | 321 | 6.0 | 12.0 | 0.00 | 0.00 | 0.00 | 44 | 1015.1 |
| 20260503221508 | 62 | 271 | 6.0 | 11.0 | 0.00 | 0.00 | 0.00 | 42 | 1015.1 |
| 20260503221009 | 62 | 283 | 7.0 | 10.0 | 0.00 | 0.00 | 0.00 | 44 | 1015.2 |
| 20260503220506 | 62 | 324 | 5.0 | 13.0 | 0.00 | 0.00 | 0.00 | 38 | 1015.3 |
| 20260503220014 | 62 | 288 | 4.0 | 14.0 | 0.00 | 0.00 | 0.00 | 40 | 1015.3 |
| 20260503215507 | 62 | 293 | 9.0 | 14.0 | 0.00 | 0.00 | 0.00 | 40 | 1015.5 |
| 20260503215006 | 62 | 260 | 8.0 | 14.0 | 0.00 | 0.00 | 0.00 | 41 | 1015.4 |
| 20260503214521 | 62 | 316 | 6.0 | 15.0 | 0.00 | 0.00 | 0.00 | 42 | 1015.4 |
| 20260503214009 | 62 | 286 | 9.0 | 16.0 | 0.00 | 0.00 | 0.00 | 43 | 1015.4 |
| 20260503213506 | 62 | 276 | 9.0 | 16.0 | 0.00 | 0.00 | 0.00 | 41 | 1015.4 |
| 20260503213003 | 62 | 286 | 9.0 | 16.0 | 0.00 | 0.00 | 0.00 | 41 | 1015.4 |
| 20260503212503 | 61 | 297 | 8.0 | 15.0 | 0.00 | 0.00 | 0.00 | 40 | 1015.4 |
| 20260503212002 | 61 | 257 | 8.0 | 15.0 | 0.00 | 0.00 | 0.00 | 44 | 1015.5 |
| 20260503211507 | 61 | 281 | 10.0 | 14.0 | 0.00 | 0.00 | 0.00 | 41 | 1015.5 |
| 20260503211006 | 62 | 262 | 9.0 | 15.0 | 0.00 | 0.00 | 0.00 | 42 | 1015.4 |
| 20260503210507 | 62 | 281 | 6.0 | 17.0 | 0.00 | 0.00 | 0.00 | 40 | 1015.4 |
| 20260503210010 | 62 | 279 | 10.0 | 17.0 | 0.00 | 0.00 | 0.00 | 42 | 1015.4 |
| 20260503205504 | 62 | 296 | 6.0 | 17.0 | 0.00 | 0.00 | 0.00 | 42 | 1015.4 |
| 20260503205007 | 61 | 290 | 7.0 | 17.0 | 0.00 | 0.00 | 0.00 | 41 | 1015.4 |